PBO Station Position Time Series. Reference Frame : NAM14
Format Version,1.1.0
4-character ID,TRND
Station name,TRND_PNGA_CN1999
Begin Date, 1999-11-16
End Date, 2019-10-07
Release Date, 2019-10-08
Reference position, 41.0538860172 North Latitude, -124.1508671907 East Longitude, 78.18046 meters elevation,
Date, North (mm), East (mm), Vertical (mm), North Std. Deviation (mm), East Std. Deviation (mm),              Vertical Std. Deviation (mm), Quality,
1999-11-16,0.00, 0.00, 0.00, 2.53, 2.02, 9.44, repro,
1999-11-17,0.33, 0.87, 7.71, 2.53, 1.98, 9.34, repro,
1999-11-18,0.77, 1.25, 7.40, 2.40, 1.92, 8.65, repro,
1999-11-19,0.22, -0.18, -2.17, 2.47, 1.98, 8.98, repro,
1999-11-20,2.66, -2.08, 5.19, 2.46, 2.02, 8.92, repro,
1999-11-21,2.47, 0.27, 1.22, 2.77, 2.14, 9.94, repro,
1999-11-22,1.52, 1.33, 1.14, 2.60, 2.05, 9.07, repro,
1999-11-23,2.56, 0.18, -1.75, 2.83, 2.43, 10.80, repro,
1999-11-24,0.78, 0.30, -11.26, 2.72, 2.40, 10.70, repro,
1999-11-25,-0.14, -0.87, -0.09, 2.59, 2.11, 9.33, repro,
1999-11-26,-0.34, 0.19, -2.52, 2.55, 2.08, 9.39, repro,
1999-11-27,3.67, -0.47, -8.69, 2.38, 1.91, 8.79, repro,
1999-11-28,3.44, 0.99, -11.21, 2.43, 2.02, 8.96, repro,
1999-11-29,1.33, -0.83, -3.59, 2.47, 1.93, 8.78, repro,
1999-11-30,0.42, -0.96, -5.65, 2.55, 2.01, 9.10, repro,
1999-12-01,0.76, -0.63, 2.33, 2.60, 2.07, 9.50, repro,
1999-12-02,1.66, 0.07, -3.15, 2.29, 1.90, 8.54, repro,
1999-12-03,2.45, 1.67, -5.50, 2.55, 2.14, 9.56, repro,
1999-12-04,2.35, 0.48, -10.57, 2.58, 2.08, 9.65, repro,
1999-12-05,4.03, 0.54, -18.57, 2.44, 1.97, 8.97, repro,
1999-12-06,2.71, 1.69, -7.80, 2.65, 2.09, 9.64, repro,
1999-12-07,3.34, 1.66, -10.06, 2.71, 2.28, 10.14, repro,
1999-12-08,3.92, 0.84, -26.64, 3.09, 2.41, 11.26, repro,
1999-12-09,-1.56, -0.92, 17.87, 2.67, 2.20, 10.02, repro,
1999-12-10,3.89, 2.15, -25.74, 2.61, 1.99, 9.36, repro,
1999-12-11,1.45, 1.62, -5.51, 2.67, 2.19, 9.95, repro,
1999-12-12,1.67, -0.31, -3.63, 2.68, 2.26, 10.06, repro,
1999-12-13,1.71, 1.54, -18.44, 2.74, 2.31, 10.45, repro,
1999-12-14,4.52, 1.89, -7.00, 2.72, 2.13, 9.75, repro,
1999-12-15,1.99, 0.75, -7.90, 2.89, 2.42, 10.97, repro,
1999-12-16,-0.18, 2.49, 0.26, 2.65, 2.15, 9.56, repro,
1999-12-17,0.95, 1.23, -9.74, 2.68, 2.19, 10.04, repro,
1999-12-18,3.40, -2.11, -3.76, 2.77, 2.18, 10.77, repro,
1999-12-19,4.13, 1.35, -12.11, 2.60, 2.10, 9.92, repro,
1999-12-20,0.65, -1.28, -1.26, 2.40, 1.98, 9.05, repro,
1999-12-21,3.58, 1.08, -16.84, 2.60, 2.11, 9.82, repro,
1999-12-22,0.78, -0.10, -6.66, 2.79, 2.22, 10.58, repro,
1999-12-23,2.63, 1.49, -11.24, 2.68, 2.35, 10.62, repro,
1999-12-24,2.96, -0.43, -14.46, 2.87, 2.47, 11.49, repro,
1999-12-25,1.61, 1.38, -22.05, 2.43, 1.99, 9.09, repro,
1999-12-26,0.85, 1.21, -20.79, 2.52, 2.05, 9.54, repro,
1999-12-27,3.18, -0.11, -29.47, 2.32, 1.89, 8.74, repro,
1999-12-28,0.89, -0.60, -17.11, 2.60, 2.03, 9.71, repro,
1999-12-29,2.45, 1.29, -14.82, 2.39, 1.97, 9.05, repro,
1999-12-30,2.20, 0.62, -5.74, 2.42, 2.01, 9.19, repro,
1999-12-31,3.46, 1.12, -10.77, 2.42, 1.98, 9.22, repro,
2000-01-01,2.29, 0.72, -5.82, 2.56, 1.99, 9.45, repro,
2000-01-02,2.45, 0.66, -11.04, 2.37, 1.95, 8.95, repro,
2000-01-03,2.89, 0.43, -13.90, 2.93, 2.45, 11.33, repro,
2000-01-07,4.11, 0.91, -28.92, 2.70, 1.99, 9.77, repro,
2000-01-08,1.83, -0.17, -20.33, 2.36, 1.88, 8.84, repro,
2000-01-09,2.19, 0.82, -7.33, 2.28, 1.84, 8.45, repro,
2000-01-10,1.66, 0.76, -8.07, 2.33, 1.87, 8.72, repro,
2000-01-11,3.08, 1.53, -3.87, 2.36, 1.90, 8.81, repro,
2000-01-12,3.86, 0.91, -7.54, 2.43, 1.99, 9.28, repro,
2000-01-13,3.37, 2.36, -13.64, 2.51, 2.00, 9.47, repro,
2000-01-14,0.35, -0.03, -6.29, 2.62, 2.06, 9.87, repro,
2000-01-15,5.00, 1.04, -22.43, 2.57, 1.99, 9.57, repro,
2000-01-16,0.91, -0.60, -10.45, 2.35, 1.88, 8.70, repro,
2000-01-17,4.27, 0.97, -18.54, 2.41, 1.99, 9.05, repro,
2000-01-18,2.38, 2.15, -12.86, 2.37, 1.95, 8.82, repro,
2000-01-19,2.57, 0.86, -10.78, 2.41, 1.99, 9.01, repro,
2000-01-20,3.28, 3.07, -11.39, 2.42, 1.91, 8.88, repro,
2000-01-21,1.08, 1.48, -0.28, 2.32, 1.89, 8.57, repro,
2000-01-22,2.25, 1.58, -5.21, 2.41, 1.96, 9.00, repro,
2000-01-23,2.99, 1.53, -2.16, 2.41, 1.95, 9.37, repro,
2000-01-24,1.11, 0.43, -3.81, 2.32, 1.89, 8.72, repro,
2000-01-25,4.05, 1.14, -11.42, 2.37, 1.91, 8.90, repro,
2000-01-26,3.59, 0.54, -10.80, 2.45, 1.89, 9.12, repro,
2000-01-27,2.60, 1.28, -18.03, 2.83, 2.16, 10.21, repro,
2000-01-28,3.17, 1.83, -17.30, 2.46, 1.96, 9.28, repro,
2000-01-29,2.66, 2.15, -19.62, 2.48, 1.99, 9.43, repro,
2000-01-30,3.96, 0.27, -16.67, 2.48, 1.93, 9.21, repro,
2000-01-31,0.26, 1.76, -1.50, 2.58, 1.97, 9.67, repro,
2000-02-01,2.65, 1.00, -18.50, 2.52, 1.92, 9.26, repro,
2000-02-02,2.19, 2.56, -12.21, 2.58, 1.96, 9.64, repro,
2000-02-03,2.10, 1.48, -11.82, 2.46, 1.92, 9.38, repro,
2000-02-04,2.07, 0.24, -10.39, 2.45, 1.91, 9.01, repro,
2000-02-05,0.98, 0.92, -3.95, 2.52, 2.00, 9.24, repro,
2000-02-06,1.42, 2.95, -11.77, 2.49, 2.05, 9.38, repro,
2000-02-07,1.89, 1.56, -23.18, 2.37, 1.90, 8.88, repro,
2000-02-08,1.50, 1.23, -12.72, 2.44, 1.96, 9.25, repro,
2000-02-09,3.15, 1.87, -26.21, 2.45, 1.94, 9.09, repro,
2000-02-10,2.79, 2.38, -21.71, 2.40, 1.96, 9.06, repro,
2000-02-11,2.06, 1.22, -14.47, 2.31, 1.91, 8.59, repro,
2000-02-12,2.96, 1.52, -22.17, 2.39, 1.89, 9.01, repro,
2000-02-13,2.13, -0.05, -10.21, 2.32, 1.84, 8.54, repro,
2000-02-14,1.85, 1.23, -12.02, 2.36, 1.86, 8.95, repro,
2000-02-15,1.82, 1.38, -11.99, 2.46, 1.93, 9.03, repro,
2000-02-16,3.27, 2.74, -23.23, 2.35, 1.82, 8.62, repro,
2000-02-17,2.89, 0.75, -17.04, 2.36, 1.88, 8.91, repro,
2000-02-18,3.26, 1.52, -28.12, 2.33, 1.83, 8.75, repro,
2000-02-19,4.01, 1.69, -24.72, 2.46, 1.90, 9.16, repro,
2000-02-20,2.29, 1.04, -21.41, 2.45, 1.90, 9.40, repro,
2000-02-21,-0.07, -0.45, -4.96, 2.49, 1.95, 9.46, repro,
2000-02-22,0.76, 0.23, -9.69, 2.41, 1.88, 9.04, repro,
2000-02-23,1.49, 0.04, -16.50, 2.48, 2.01, 9.40, repro,
2000-02-24,2.38, 0.92, -20.00, 2.31, 1.89, 8.70, repro,
2000-02-25,1.77, 1.04, -8.18, 2.33, 1.90, 8.82, repro,
2000-02-26,-0.50, 1.09, -6.75, 2.48, 2.01, 9.48, repro,
2000-02-27,-1.18, -0.08, -8.10, 2.41, 1.95, 9.13, repro,
2000-02-28,0.23, -0.15, -4.80, 2.52, 1.98, 9.46, repro,
2000-02-29,1.81, 0.45, -15.24, 2.49, 2.02, 9.75, repro,
2000-03-01,1.83, 1.37, -17.84, 2.46, 1.98, 9.41, repro,
2000-03-02,2.03, 1.64, -29.24, 2.45, 1.93, 9.41, repro,
2000-03-03,1.00, 0.99, -14.45, 2.56, 2.16, 10.03, repro,
2000-03-04,1.50, -0.37, -24.63, 2.53, 1.96, 9.28, repro,
2000-03-05,-1.12, -1.50, -3.24, 2.39, 1.92, 9.07, repro,
2000-03-06,1.60, -0.12, -12.68, 2.56, 2.06, 9.83, repro,
2000-03-07,1.10, 0.99, -15.69, 2.50, 2.12, 9.62, repro,
2000-03-08,0.77, -0.31, -17.15, 2.51, 1.99, 9.42, repro,
2000-03-09,3.23, -0.16, -19.25, 2.45, 1.96, 9.22, repro,
2000-03-10,2.12, 2.69, -23.23, 2.74, 2.21, 10.23, repro,
2000-03-11,-0.26, 0.50, -23.19, 2.59, 2.06, 9.75, repro,
2000-03-12,2.70, 0.63, -26.46, 2.87, 2.20, 10.73, repro,
2000-03-13,2.79, -0.47, -36.32, 2.89, 2.37, 10.92, repro,
2000-03-14,2.49, 0.21, -18.78, 2.61, 2.06, 9.97, repro,
2000-03-15,2.33, 0.73, -15.42, 2.50, 2.01, 9.60, repro,
2000-03-16,2.17, 1.39, -10.13, 2.55, 2.00, 9.57, repro,
2000-03-17,2.91, 1.70, -19.35, 2.49, 2.04, 9.49, repro,
2000-03-18,2.61, -0.70, -17.90, 2.47, 1.90, 9.23, repro,
2000-03-19,3.14, 0.75, -19.04, 2.55, 2.02, 9.59, repro,
2000-03-20,2.68, 0.68, -24.93, 2.71, 2.09, 9.84, repro,
2000-03-21,1.58, 1.03, -16.89, 2.62, 2.03, 9.63, repro,
2000-03-22,2.89, 0.02, -24.02, 2.60, 2.05, 9.73, repro,
2000-03-23,3.18, 1.15, -18.22, 2.63, 2.06, 9.92, repro,
2000-03-24,2.29, 0.66, -30.71, 2.59, 1.99, 9.48, repro,
2000-03-25,2.27, 0.54, -12.75, 2.38, 1.88, 8.77, repro,
2000-03-26,3.12, 1.47, -20.61, 2.62, 1.96, 9.75, repro,
2000-03-27,2.51, 1.39, 1.10, 2.67, 1.98, 9.96, repro,
2000-03-28,3.75, 1.16, -21.97, 2.57, 1.92, 9.58, repro,
2000-03-29,2.36, -0.20, -15.34, 2.55, 1.90, 9.43, repro,
2000-03-30,0.76, 0.14, -21.06, 2.54, 1.91, 9.34, repro,
2000-03-31,2.12, -0.74, -16.18, 2.59, 1.98, 9.79, repro,
2000-04-01,2.91, 1.63, -14.08, 2.60, 2.03, 10.14, repro,
2000-04-02,3.49, 0.26, -10.23, 2.65, 2.00, 9.80, repro,
2000-04-03,2.68, 0.97, -19.50, 2.57, 2.00, 9.46, repro,
2000-04-04,3.54, 2.10, -20.30, 2.59, 2.02, 9.37, repro,
2000-04-05,3.14, 2.24, -21.14, 2.50, 1.92, 9.20, repro,
2000-04-06,3.56, 2.20, -9.69, 2.60, 1.88, 9.41, repro,
2000-04-07,4.61, 2.51, -17.49, 2.62, 1.93, 9.47, repro,
2000-04-08,1.02, 2.01, -12.79, 2.49, 2.01, 9.54, repro,
2000-04-09,1.80, 1.16, -6.36, 2.39, 1.91, 9.07, repro,
2000-04-10,3.75, 2.36, -19.40, 2.43, 1.90, 9.12, repro,
2000-04-11,-0.01, 1.41, -6.93, 2.48, 1.94, 9.11, repro,
2000-04-12,3.40, 2.15, -19.06, 2.62, 1.91, 9.76, repro,
2000-04-13,-0.52, -0.53, -13.66, 2.49, 1.92, 9.30, repro,
2000-04-14,1.89, 0.72, -8.20, 2.50, 1.90, 9.24, repro,
2000-04-15,1.60, 0.08, -4.57, 2.41, 1.88, 9.11, repro,
2000-04-16,0.58, 0.42, -9.80, 2.41, 1.87, 9.05, repro,
2000-04-17,0.98, 0.82, -10.23, 2.42, 1.85, 9.06, repro,
2000-04-18,1.02, 1.44, -5.40, 2.42, 1.87, 9.04, repro,
2000-04-19,3.25, 0.49, -13.30, 2.47, 1.95, 9.34, repro,
2000-04-20,0.96, 0.58, -13.14, 2.46, 1.88, 9.32, repro,
2000-04-21,1.42, 0.64, -15.52, 2.50, 1.91, 9.48, repro,
2000-04-22,1.53, 0.85, -11.08, 2.47, 1.86, 9.19, repro,
2000-04-23,2.04, 1.26, -10.31, 2.40, 1.86, 8.90, repro,
2000-04-24,2.35, 1.00, -16.13, 2.48, 1.94, 9.49, repro,
2000-04-25,2.65, -0.21, -21.28, 2.50, 1.99, 9.61, repro,
2000-04-26,0.98, 0.94, -12.32, 2.53, 2.04, 9.85, repro,
2000-04-27,2.84, 0.27, -20.28, 2.44, 1.89, 9.17, repro,
2000-04-28,1.22, 0.30, -2.97, 2.56, 2.03, 9.67, repro,
2000-04-29,1.17, 1.73, -9.43, 2.47, 1.97, 9.53, repro,
2000-04-30,1.48, 0.85, -19.73, 2.48, 1.97, 9.57, repro,
2000-05-01,-1.19, 0.50, -3.56, 2.52, 1.98, 9.66, repro,
2000-05-02,0.44, -0.12, -5.91, 2.60, 2.06, 9.79, repro,
2000-05-03,1.87, 0.58, -7.78, 2.65, 2.11, 10.26, repro,
2000-05-04,2.03, 0.77, -14.96, 2.42, 1.88, 9.14, repro,
2000-05-05,1.23, 0.41, -10.37, 2.45, 1.91, 9.18, repro,
2000-05-06,2.34, 1.34, -10.47, 2.44, 1.89, 9.08, repro,
2000-05-07,1.34, 0.06, -6.14, 2.49, 1.99, 9.35, repro,
2000-05-08,1.85, 0.66, -6.37, 2.49, 1.98, 9.43, repro,
2000-05-09,0.53, 1.18, -11.29, 2.48, 1.96, 9.38, repro,
2000-05-10,1.63, -0.53, -7.78, 2.44, 1.90, 9.26, repro,
2000-05-11,0.17, 0.42, -10.07, 2.47, 1.94, 9.41, repro,
2000-05-12,0.58, 0.13, -8.10, 2.50, 1.99, 9.60, repro,
2000-05-13,2.07, 1.93, -6.14, 2.50, 1.95, 9.40, repro,
2000-05-14,1.32, 3.00, -17.70, 2.67, 2.10, 10.47, repro,
2000-05-15,0.94, -0.19, -13.42, 2.56, 2.01, 9.78, repro,
2000-05-16,2.79, -0.80, -12.70, 2.42, 1.91, 9.28, repro,
2000-05-17,1.18, -2.18, -4.46, 2.44, 1.92, 9.25, repro,
2000-05-18,2.48, -0.50, -6.98, 2.45, 1.89, 9.25, repro,
2000-05-19,1.89, -0.21, -20.41, 2.46, 1.90, 9.54, repro,
2000-05-20,3.62, 1.32, -10.20, 2.44, 1.89, 9.38, repro,
2000-05-21,4.14, 0.26, -16.62, 2.43, 1.94, 9.27, repro,
2000-05-22,1.98, 0.71, -17.40, 2.50, 2.05, 9.86, repro,
2000-05-23,0.90, 0.91, -9.66, 2.54, 1.93, 9.48, repro,
2000-05-24,2.08, 0.68, -13.94, 2.52, 1.89, 9.36, repro,
2000-05-25,2.19, 0.27, -11.35, 2.52, 2.00, 9.83, repro,
2000-05-26,1.68, -0.00, -8.45, 2.44, 1.87, 9.10, repro,
2000-05-27,3.45, 0.30, -17.98, 2.51, 1.91, 9.35, repro,
2000-05-28,0.76, 1.07, -10.71, 2.56, 1.89, 9.74, repro,
2000-05-29,1.84, -0.22, -7.97, 2.40, 1.84, 8.90, repro,
2000-05-30,0.26, -0.67, -8.14, 2.46, 1.89, 9.31, repro,
2000-05-31,-0.29, -0.79, -16.81, 2.47, 1.86, 9.21, repro,
2000-06-01,1.95, -0.92, -16.71, 2.42, 1.87, 9.00, repro,
2000-06-02,1.98, -0.53, -15.51, 2.33, 1.90, 8.86, repro,
2000-06-03,0.95, -0.71, -8.40, 2.31, 1.87, 8.58, repro,
2000-06-04,1.31, 0.17, -11.02, 2.38, 1.94, 8.98, repro,
2000-06-05,3.47, -0.15, -13.67, 2.35, 1.88, 8.92, repro,
2000-06-06,2.94, -0.69, -11.41, 2.37, 1.93, 8.92, repro,
2000-06-07,1.68, 0.05, -10.14, 2.32, 1.89, 8.92, repro,
2000-06-08,1.03, -0.75, -6.45, 2.35, 1.89, 8.93, repro,
2000-06-09,2.14, -2.27, -11.87, 2.41, 1.90, 9.19, repro,
2000-06-10,2.68, -1.53, -6.48, 2.36, 1.89, 8.81, repro,
2000-06-11,3.07, -0.13, -12.62, 2.33, 1.88, 8.84, repro,
2000-06-12,0.05, -0.37, -2.74, 2.36, 1.86, 8.76, repro,
2000-06-13,-1.39, -0.71, -8.91, 2.35, 1.88, 8.85, repro,
2000-06-14,-0.67, -1.36, 0.59, 2.38, 1.92, 9.10, repro,
2000-06-15,2.15, -2.61, -2.45, 2.54, 2.04, 9.71, repro,
2000-06-16,0.78, -1.98, -9.38, 2.47, 1.95, 9.50, repro,
2000-06-17,1.63, -2.05, -5.79, 2.32, 1.85, 8.64, repro,
2000-06-18,2.93, -1.08, -13.40, 2.42, 1.93, 9.03, repro,
2000-06-19,2.01, -0.60, -8.02, 2.42, 1.91, 9.13, repro,
2000-06-20,0.55, -3.21, -8.01, 2.39, 1.91, 9.02, repro,
2000-06-21,1.08, -1.03, -1.39, 2.38, 1.92, 8.89, repro,
2000-06-22,1.37, -1.20, -1.84, 2.55, 1.98, 9.43, repro,
2000-06-23,1.02, -3.26, -3.14, 2.55, 1.93, 9.58, repro,
2000-06-24,0.72, -3.66, -11.01, 2.39, 1.92, 9.05, repro,
2000-06-25,3.54, -1.96, -27.14, 2.34, 1.90, 8.95, repro,
2000-06-26,0.61, -2.24, -8.96, 2.46, 1.93, 9.18, repro,
2000-06-27,0.54, -2.38, -13.49, 2.63, 1.96, 9.68, repro,
2000-06-28,0.81, -1.60, -11.00, 2.53, 1.90, 9.39, repro,
2000-06-29,-1.39, -2.76, -0.25, 2.42, 1.88, 8.93, repro,
2000-06-30,1.11, -1.06, -11.28, 2.44, 1.91, 9.13, repro,
2000-07-01,1.32, -3.24, -18.16, 2.56, 1.95, 9.51, repro,
2000-07-02,2.87, -2.64, -6.97, 2.49, 1.88, 9.11, repro,
2000-07-03,1.19, -3.33, -1.88, 2.54, 1.95, 9.45, repro,
2000-07-04,3.09, -1.87, -16.78, 2.45, 1.93, 9.20, repro,
2000-07-05,-0.37, -2.95, -7.77, 2.48, 1.92, 9.23, repro,
2000-07-06,0.61, -2.14, -13.70, 2.40, 1.86, 8.85, repro,
2000-07-07,3.04, -1.60, -9.01, 2.47, 1.93, 9.40, repro,
2000-07-08,1.45, -2.93, -10.22, 2.40, 1.92, 9.20, repro,
2000-07-09,1.99, -2.43, -11.04, 2.52, 1.92, 9.13, repro,
2000-07-10,1.98, -1.69, -10.98, 2.51, 1.90, 9.26, repro,
2000-07-11,0.21, -2.07, 8.35, 2.44, 1.94, 9.13, repro,
2000-07-12,0.30, -3.38, -6.99, 2.45, 1.91, 9.09, repro,
2000-07-13,1.79, -0.87, -13.35, 2.39, 1.90, 8.97, repro,
2000-07-14,0.98, 1.00, -4.57, 2.51, 1.90, 9.20, repro,
2000-07-15,1.42, -2.50, -8.86, 2.56, 1.96, 9.55, repro,
2000-07-16,0.22, -2.43, -2.79, 2.42, 1.88, 8.99, repro,
2000-07-17,1.48, -2.67, -5.67, 2.44, 1.90, 8.96, repro,
2000-07-18,1.57, -2.12, -9.42, 2.46, 1.90, 9.13, repro,
2000-07-19,0.30, -1.16, -7.07, 2.56, 1.97, 9.58, repro,
2000-07-20,1.67, -0.98, -10.40, 2.45, 1.91, 9.10, repro,
2000-07-21,0.59, -1.23, 0.69, 2.45, 1.89, 9.16, repro,
2000-07-22,0.06, -0.93, 3.71, 2.64, 2.05, 9.80, repro,
2000-07-23,1.68, -1.30, -8.91, 2.54, 1.92, 9.42, repro,
2000-07-24,1.67, -2.24, -11.87, 2.46, 1.91, 9.16, repro,
2000-07-25,0.68, -0.76, 2.46, 2.45, 1.88, 8.98, repro,
2000-07-26,1.24, -1.14, -3.00, 2.49, 1.90, 9.16, repro,
2000-07-27,2.16, -2.10, -8.99, 2.61, 1.97, 9.62, repro,
2000-07-28,-0.27, -1.37, -7.92, 2.67, 2.03, 9.88, repro,
2000-07-29,1.58, -2.62, -9.92, 2.68, 1.98, 9.71, repro,
2000-07-30,0.54, -1.14, 10.84, 2.45, 1.89, 8.87, repro,
2000-07-31,0.56, -1.35, 2.42, 2.46, 1.89, 8.94, repro,
2000-08-01,2.12, -1.33, -15.82, 2.66, 2.08, 10.35, repro,
2000-08-02,0.48, -1.66, -2.71, 2.57, 2.01, 9.73, repro,
2000-08-03,0.93, -0.63, -2.42, 2.53, 1.99, 9.47, repro,
2000-08-04,3.77, 0.02, -8.51, 2.66, 2.02, 9.75, repro,
2000-08-05,2.17, -1.61, -10.67, 2.55, 1.98, 9.56, repro,
2000-08-06,0.92, -1.86, -1.84, 2.68, 2.02, 9.84, repro,
2000-08-07,0.82, -1.56, 4.80, 2.55, 1.96, 9.22, repro,
2000-08-08,1.10, -1.59, -4.55, 2.57, 1.92, 9.13, repro,
2000-08-09,-0.92, -2.15, 0.31, 2.71, 2.06, 9.77, repro,
2000-08-10,1.47, -1.09, -5.74, 2.78, 2.06, 9.88, repro,
2000-08-11,2.59, -1.01, -5.96, 2.53, 1.98, 9.23, repro,
2000-08-12,1.52, -1.76, -11.26, 2.61, 1.98, 9.64, repro,
2000-08-13,3.09, -1.97, -10.47, 2.65, 1.97, 9.49, repro,
2000-08-14,2.14, -3.04, -3.61, 2.51, 1.94, 9.22, repro,
2000-08-15,1.10, -1.45, 1.61, 2.53, 1.96, 9.16, repro,
2000-08-16,-0.54, -0.59, -1.13, 2.57, 1.96, 9.20, repro,
2000-08-17,2.02, -0.07, -6.89, 2.61, 1.96, 9.29, repro,
2000-08-18,0.56, -1.60, -12.90, 2.71, 1.99, 9.67, repro,
2000-08-19,1.51, -0.22, -0.89, 2.51, 1.91, 9.17, repro,
2000-08-20,2.86, -1.01, -1.99, 2.65, 2.02, 9.82, repro,
2000-08-21,1.75, -1.90, -1.87, 2.53, 1.94, 9.06, repro,
2000-08-22,0.37, -2.25, -6.23, 2.58, 1.99, 9.33, repro,
2000-08-23,1.83, -2.63, 7.34, 2.43, 1.89, 8.79, repro,
2000-08-24,-0.02, -1.12, -0.96, 2.73, 2.02, 9.70, repro,
2000-08-25,0.14, -0.16, -5.12, 2.70, 1.99, 9.64, repro,
2000-08-26,2.96, -4.92, -13.02, 2.62, 1.98, 9.44, repro,
2000-08-27,2.04, -2.64, 2.71, 2.59, 2.00, 9.43, repro,
2000-08-28,1.37, -2.08, -11.45, 2.66, 2.01, 9.49, repro,
2000-08-29,-0.05, -3.32, -2.35, 2.53, 1.97, 9.28, repro,
2000-08-30,-0.15, -3.02, -4.69, 2.66, 1.98, 9.42, repro,
2000-08-31,-0.16, -2.07, -3.24, 2.54, 1.89, 8.95, repro,
2000-09-01,0.08, -2.77, -3.71, 2.57, 1.92, 9.11, repro,
2000-09-02,0.30, -1.57, 2.62, 2.63, 1.98, 9.25, repro,
2000-09-03,-0.84, -1.84, 3.44, 2.48, 1.90, 8.88, repro,
2000-09-04,0.57, -2.86, -8.24, 2.63, 1.97, 9.18, repro,
2000-09-05,-0.38, -3.54, -5.50, 2.69, 2.01, 9.27, repro,
2000-09-06,2.19, -1.66, -6.28, 2.51, 1.94, 9.01, repro,
2000-09-07,2.22, -2.53, -2.70, 2.53, 2.02, 9.20, repro,
2000-09-08,3.52, -2.94, -9.26, 2.59, 1.95, 9.30, repro,
2000-09-09,1.37, -4.31, 0.99, 2.66, 1.99, 9.51, repro,
2000-09-10,1.41, -4.28, -6.96, 2.67, 2.06, 9.62, repro,
2000-09-11,3.22, -2.82, -5.29, 2.61, 1.99, 9.38, repro,
2000-09-12,4.72, -1.02, -16.37, 2.52, 1.99, 9.21, repro,
2000-09-13,0.63, -2.74, -2.13, 2.62, 2.00, 9.47, repro,
2000-09-14,4.01, -1.61, -8.68, 2.73, 2.07, 9.82, repro,
2000-09-15,1.54, -2.77, -11.21, 2.55, 1.95, 9.12, repro,
2000-09-16,0.91, -2.71, -10.32, 2.39, 1.90, 8.83, repro,
2000-09-17,-0.23, -2.18, -4.77, 2.57, 2.03, 9.33, repro,
2000-09-18,0.50, -2.56, -4.71, 2.44, 1.96, 8.97, repro,
2000-09-19,1.40, -1.77, -11.31, 2.55, 1.97, 9.19, repro,
2000-09-20,1.77, -2.61, -13.59, 2.52, 1.97, 9.03, repro,
2000-09-21,1.79, -4.20, -12.63, 2.74, 2.08, 9.91, repro,
2000-09-22,2.08, -3.67, -12.68, 2.70, 2.08, 9.69, repro,
2000-09-23,3.27, -3.33, -7.75, 2.46, 1.97, 9.01, repro,
2000-09-24,2.09, -2.00, -8.73, 2.62, 2.03, 9.39, repro,
2000-09-25,1.47, -1.94, -11.94, 2.56, 1.97, 9.23, repro,
2000-09-26,0.35, -2.80, -8.11, 2.41, 1.92, 8.93, repro,
2000-09-27,2.36, -3.37, -19.59, 2.61, 1.98, 9.60, repro,
2000-09-28,1.93, -2.92, 3.32, 2.49, 2.04, 9.45, repro,
2000-09-29,1.05, -2.01, 4.27, 2.47, 1.92, 9.11, repro,
2000-09-30,1.83, -3.88, 2.46, 2.47, 1.97, 9.21, repro,
2000-10-01,0.09, -4.70, 18.11, 2.45, 1.94, 8.95, repro,
2000-10-02,-0.12, -2.92, 9.47, 2.43, 1.88, 8.74, repro,
2000-10-03,2.51, -2.18, -9.10, 2.44, 1.93, 8.81, repro,
2000-10-04,1.35, -4.07, 0.34, 2.41, 1.86, 8.81, repro,
2000-10-05,0.58, -3.96, 10.59, 2.50, 2.01, 9.14, repro,
2000-10-06,-0.27, -2.33, 3.39, 2.37, 1.84, 8.69, repro,
2000-10-07,0.47, -3.14, 7.46, 2.38, 1.83, 8.65, repro,
2000-10-08,2.68, -3.08, -2.12, 2.38, 1.86, 8.75, repro,
2000-10-09,0.35, -3.91, 5.95, 2.41, 1.87, 8.78, repro,
2000-10-10,-0.13, -4.19, 16.35, 2.46, 1.89, 8.91, repro,
2000-10-11,1.47, -4.17, 3.22, 2.44, 1.88, 8.81, repro,
2000-10-12,2.30, -3.01, -0.98, 2.44, 1.92, 8.92, repro,
2000-10-13,2.96, -3.07, -14.28, 2.47, 1.95, 9.11, repro,
2000-10-14,-0.81, -2.93, 9.95, 2.52, 1.93, 9.19, repro,
2000-10-15,-0.53, -3.24, 2.74, 2.56, 1.91, 9.15, repro,
2000-10-16,0.60, -4.69, 1.46, 2.41, 1.88, 8.82, repro,
2000-10-17,0.91, -3.32, 4.49, 2.61, 1.99, 9.54, repro,
2000-10-18,0.97, -2.61, 2.40, 2.51, 1.94, 9.04, repro,
2000-10-19,-0.27, -3.29, 12.04, 2.57, 1.93, 9.36, repro,
2000-10-20,2.65, -2.05, -8.41, 2.54, 1.90, 8.98, repro,
2000-10-21,1.95, -2.49, 9.77, 2.49, 1.88, 8.90, repro,
2000-10-22,0.89, -1.38, 7.25, 2.50, 1.86, 8.91, repro,
2000-10-23,-0.36, -3.97, 9.56, 2.61, 1.94, 9.60, repro,
2000-10-24,1.12, -2.08, -0.49, 2.41, 1.88, 8.79, repro,
2000-10-25,0.32, -4.79, 8.01, 2.50, 1.94, 9.14, repro,
2000-10-26,-0.34, -4.96, 7.97, 2.47, 1.91, 8.87, repro,
2000-10-27,1.00, -3.98, 2.14, 2.50, 1.93, 9.09, repro,
2000-10-28,1.94, -5.83, 5.04, 2.58, 1.89, 9.26, repro,
2000-10-29,0.59, -3.50, 2.96, 2.40, 1.87, 8.69, repro,
2000-10-30,0.29, -2.17, 6.83, 2.48, 1.93, 9.04, repro,
2000-10-31,1.62, -2.76, -5.52, 2.54, 1.91, 8.96, repro,
2000-11-01,0.80, -2.20, -9.06, 2.50, 1.94, 9.16, repro,
2000-11-02,0.82, -2.63, -1.00, 2.44, 1.92, 9.00, repro,
2000-11-03,-0.02, -2.57, -0.57, 2.55, 2.02, 9.44, repro,
2000-11-04,-0.18, -3.01, 4.45, 2.39, 1.87, 8.65, repro,
2000-11-05,3.15, -1.89, -1.44, 2.43, 1.88, 8.86, repro,
2000-11-06,2.79, -1.26, -3.26, 2.53, 1.92, 9.27, repro,
2000-11-07,2.77, -2.90, -13.85, 2.55, 1.99, 9.28, repro,
2000-11-08,1.39, -0.67, 0.60, 2.51, 1.96, 9.11, repro,
2000-11-09,3.77, -2.88, 3.14, 2.63, 1.93, 9.37, repro,
2000-11-10,2.74, -1.84, -4.85, 2.81, 1.98, 10.08, repro,
2000-11-11,0.41, -2.07, -12.14, 2.46, 1.86, 8.67, repro,
2000-11-12,0.15, -2.46, 3.71, 2.42, 1.87, 8.78, repro,
2000-11-13,-1.24, -2.60, -1.60, 2.48, 1.93, 9.01, repro,
2000-11-14,0.46, -0.81, -1.83, 2.54, 1.98, 9.18, repro,
2000-11-15,1.02, -1.18, -6.31, 2.45, 1.89, 8.73, repro,
2000-11-16,0.06, -1.40, 4.05, 2.56, 1.90, 8.95, repro,
2000-11-17,2.89, -1.42, -9.59, 2.44, 1.88, 8.74, repro,
2000-11-18,0.57, -1.87, -6.21, 2.49, 1.95, 9.00, repro,
2000-11-19,-0.40, -1.81, -1.72, 2.61, 2.07, 9.52, repro,
2000-11-20,-0.71, -2.66, -6.30, 2.75, 2.04, 9.81, repro,
2000-11-21,0.87, -2.03, -10.60, 2.67, 2.03, 9.62, repro,
2000-11-22,1.99, -1.86, -8.11, 2.55, 1.98, 9.20, repro,
2000-11-23,1.57, -2.43, 2.61, 2.52, 1.96, 9.23, repro,
2000-11-24,3.48, -1.14, -4.37, 2.46, 1.93, 9.18, repro,
2000-11-25,-0.86, -1.70, -6.73, 2.63, 2.03, 9.61, repro,
2000-11-26,1.40, -1.54, -10.66, 2.60, 2.01, 9.58, repro,
2000-11-27,0.40, 0.09, -2.68, 2.65, 2.01, 9.62, repro,
2000-11-28,1.24, -1.47, -7.08, 2.56, 1.91, 9.08, repro,
2000-11-29,1.00, -1.72, -4.37, 2.65, 1.98, 9.59, repro,
2000-11-30,-0.32, -2.96, -7.41, 2.60, 2.04, 9.36, repro,
2000-12-01,0.02, -0.80, -8.55, 2.73, 2.03, 10.11, repro,
2000-12-02,1.03, -0.58, -6.32, 2.67, 2.04, 9.90, repro,
2000-12-03,-0.93, -3.46, -8.22, 2.97, 2.35, 11.34, repro,
2000-12-04,1.38, -1.97, -5.12, 3.02, 2.26, 11.05, repro,
2000-12-05,1.29, -3.26, -17.91, 2.69, 2.16, 10.06, repro,
2000-12-06,0.95, -0.48, -7.20, 2.57, 1.96, 9.47, repro,
2000-12-07,0.83, -1.52, -2.80, 2.61, 1.99, 9.31, repro,
2000-12-08,-1.09, -1.88, 1.25, 2.69, 2.06, 9.97, repro,
2000-12-09,-0.56, -3.14, -7.94, 2.62, 2.00, 9.42, repro,
2000-12-10,0.59, -1.20, -14.53, 2.74, 2.19, 10.11, repro,
2000-12-11,0.54, -1.00, 2.51, 2.50, 1.94, 9.52, repro,
2000-12-12,0.34, -1.62, -4.53, 2.53, 1.94, 9.48, repro,
2000-12-13,0.63, -3.03, -10.56, 2.49, 1.89, 9.22, repro,
2000-12-14,1.51, -2.24, -13.33, 2.45, 1.92, 9.24, repro,
2000-12-15,1.97, -1.07, -12.80, 2.40, 1.90, 8.94, repro,
2000-12-16,0.34, -3.20, -17.32, 2.42, 1.91, 9.22, repro,
2000-12-17,1.31, -2.15, 3.71, 2.63, 2.03, 9.67, repro,
2000-12-18,1.57, -1.67, -13.66, 2.51, 1.92, 9.14, repro,
2000-12-19,1.88, -2.52, -10.80, 2.60, 1.93, 9.75, repro,
2000-12-20,-0.28, -4.16, -11.22, 2.43, 1.88, 9.05, repro,
2000-12-21,0.99, -3.14, -15.51, 2.52, 1.89, 8.98, repro,
2000-12-22,-0.18, -3.37, -6.00, 2.47, 1.89, 9.07, repro,
2000-12-23,0.18, -1.98, -10.15, 2.45, 1.86, 8.87, repro,
2000-12-24,1.02, -1.85, -12.08, 2.42, 1.85, 8.77, repro,
2000-12-25,0.41, -1.85, -11.95, 2.39, 1.82, 8.71, repro,
2000-12-26,-0.14, -2.71, -9.65, 2.35, 1.83, 8.52, repro,
2000-12-27,-1.02, -3.24, -13.64, 2.50, 1.91, 9.26, repro,
2000-12-28,-0.30, -1.12, -9.38, 2.43, 1.86, 8.90, repro,
2000-12-29,0.09, -0.99, -10.25, 2.42, 1.84, 8.72, repro,
2000-12-30,-0.17, -1.80, -15.27, 2.47, 1.94, 9.23, repro,
2000-12-31,-0.03, -1.20, -9.69, 2.57, 2.01, 10.00, repro,
2001-01-01,-0.95, -4.10, -1.71, 2.42, 1.90, 8.98, repro,
2001-01-02,-0.04, -1.29, -15.39, 2.69, 2.05, 10.19, repro,
2001-01-03,1.79, -1.01, -7.07, 2.40, 1.94, 8.93, repro,
2001-01-04,-0.42, -1.03, -4.45, 2.49, 1.91, 9.15, repro,
2001-01-05,0.99, -2.26, -10.45, 2.50, 1.87, 9.11, repro,
2001-01-06,0.96, -0.46, -10.62, 2.53, 1.90, 9.23, repro,
2001-01-07,0.95, -2.30, -5.42, 2.41, 1.83, 8.83, repro,
2001-01-08,0.52, -1.13, 0.60, 2.41, 1.85, 8.75, repro,
2001-01-09,2.08, -1.21, -8.37, 2.48, 1.85, 9.06, repro,
2001-01-10,-1.63, -1.45, -6.53, 2.35, 1.80, 8.59, repro,